Hot Springs, AR

9:39 PM CDT on September 19, 2017 (GMT -0500)
Hot Springs Memorial

Weather History for KHOT - January, 2014

Change the Weather History Date:

Saturday, January 25, 2014

  Actual Average Record
Temperature  
Mean Temperature 47 °F -  
Max Temperature 64 °F 56 °F 81 °F (1950)
Min Temperature 30 °F 33 °F 13 °F (1963)
Degree Days  
Heating Degree Days 18    
Moisture  
Dew Point 19 °F    
Average Humidity 43    
Maximum Humidity 73    
Minimum Humidity 24    
Precipitation  
Precipitation 0.00 in - - ()
Sea Level Pressure  
Sea Level Pressure 30.04 in    
Wind  
Wind Speed 8 mph (West)    
Max Wind Speed 13 mph    
Max Gust Speed 23 mph    
Visibility 10 miles    
Events      
Averages and records for this station are not official NWS values.
T = Trace of Precipitation, MM = Missing Value Source: NWS Daily Summary

Daily Weather History Graph

Daily Weather History Graph

Search for Another Location

Airport or City:

Trip Planner

Search our weather history database for the weather conditions in past years. The results will help you decide how hot, cold, wet, or windy it might be!

Date:

Astronomy

Jan. 25, 2014 Rise Set
Actual Time 7:14 AM CST 5:35 PM CST
Civil Twilight 6:47 AM CST 6:01 PM CST
Nautical Twilight 6:17 AM CST 6:32 PM CST
Astronomical Twilight 5:47 AM CST 7:02 PM CST
Moon 1:48 AM CST (1/25) 12:35 PM CST (1/25)
Length of Visible Light 11h 14m
Length of Day
10h 20m
Waning Crescent, 34% of the Moon is Illuminated
Jan 25
Waning Crescent
Jan 30
New
Feb 6
First Quarter
Feb 14
Full
Feb 22
Last Quarter

Hourly Weather History & Observations

Time (CST) Temp. Windchill Dew Point Humidity Pressure Visibility Wind Dir Wind Speed Gust Speed Precip Events Conditions
12:53 AM 32.0 °F 22.5 °F 7.0 °F 35% 30.16 in 10.0 mi West 12.7 mph - N/A   Clear
1:53 AM 32.0 °F 22.5 °F 8.1 °F 37% 30.13 in 10.0 mi West 12.7 mph 23.0 mph N/A   Clear
2:53 AM 30.9 °F 21.7 °F 9.0 °F 40% 30.10 in 10.0 mi WSW 11.5 mph - N/A   Clear
3:53 AM 30.9 °F 22.8 °F 10.0 °F 42% 30.07 in 10.0 mi WSW 9.2 mph 17.3 mph N/A   Clear
4:53 AM 30.9 °F 23.5 °F 10.9 °F 43% 30.05 in 10.0 mi WSW 8.1 mph - N/A   Clear
5:53 AM 30.9 °F 22.8 °F 12.0 °F 46% 30.03 in 10.0 mi WSW 9.2 mph - N/A   Clear
6:53 AM 30.9 °F 24.3 °F 12.0 °F 46% 30.04 in 10.0 mi West 6.9 mph - N/A   Clear
7:07 AM 30.2 °F 25.4 °F 12.2 °F 47% 30.04 in 10.0 mi West 4.6 mph - N/A   Partly Cloudy
7:53 AM 30.9 °F 26.2 °F 12.9 °F 47% 30.06 in 10.0 mi West 4.6 mph - N/A   Clear
8:53 AM 35.1 °F 31.0 °F 14.0 °F 42% 30.06 in 10.0 mi WNW 4.6 mph - N/A   Clear
9:53 AM 41.0 °F 37.1 °F 14.0 °F 33% 30.07 in 10.0 mi West 5.8 mph - N/A   Clear
10:53 AM 48.0 °F - 16.0 °F 28% 30.06 in 10.0 mi West 5.8 mph - N/A   Clear
11:53 AM 55.0 °F - 19.0 °F 24% 30.04 in 10.0 mi North 4.6 mph - N/A   Clear
2:53 PM 63.0 °F - 28.0 °F 27% 29.96 in 10.0 mi WNW 6.9 mph - N/A   Clear
3:53 PM 64.0 °F - 28.0 °F 26% 29.96 in 10.0 mi West 6.9 mph - N/A   Clear
4:53 PM 62.1 °F - 28.9 °F 29% 29.97 in 10.0 mi WNW 3.5 mph - N/A   Clear
5:53 PM 57.0 °F - 28.9 °F 34% 30.00 in 10.0 mi North 4.6 mph - N/A   Clear
6:53 PM 53.1 °F - 30.0 °F 41% 30.01 in 10.0 mi SW 3.5 mph - N/A   Clear
7:53 PM 48.0 °F - 28.9 °F 48% 30.01 in 10.0 mi Calm Calm - N/A   Clear
8:53 PM 43.0 °F - 28.9 °F 58% 30.01 in 10.0 mi Calm Calm - N/A   Clear
9:53 PM 39.9 °F - 28.9 °F 65% 30.01 in 10.0 mi Calm Calm - N/A   Clear
10:53 PM 37.9 °F - 28.9 °F 70% 29.99 in 10.0 mi Calm Calm - N/A   Clear
11:53 PM 37.0 °F - 28.9 °F 73% 29.99 in 10.0 mi Calm Calm - N/A   Clear